Location: Newark
(42.8481°N, 0.4872°E)
Time: 08:46:58
(UTC+00:00)

Transit 2A Rocket - Pass Details

Date: 03 November 2020
Orbit: 588 x 914 km, 66.7° (Epoch: 29 November)

Event Time Altitude Azimuth Distance (km) Brightness Sun altitude
Rises 08:11:32 0° 212° (SSW) 3,533 8.5 14.6°
Reaches altitude 10° 08:14:04 10° 213° (SSW) 2,595 7.9 14.9°
Maximum altitude 08:20:10 82° 301° (WNW) 912 5.6 15.8°
Drops below altitude 10° 08:26:05 10° 30° (NNE) 2,512 7.6 16.6°
Sets 08:28:30 0° 31° (NNE) 3,413 8.3 17.0°
